This demonstration page uses our WeatherBlox Daily Observations layout. Learn more.

Left ArrowRight Arrow

Hourly Observations for July 1, 2015

Temp ( °F °C ) Dew Point ( °F °C ) Humidity (%) Winds ( mph kmh ) Pressure ( in mb ) Visibility ( mi km ) Precip ( " mm )
12:53 am 00:53 Clear 77 25 64 17.8 64 64 SSE 15 24 29.91 1013 10 16 0.00 0.00
1:53 am 01:53 Clear 75 23.9 64 17.8 69 69 SSE 9 15 29.91 1013 10 16 0.00 0.00
2:53 am 02:53 Clear 72 22.2 64 17.8 76 76 ESE 7 11 29.91 1013 10 16 0.00 0.00
3:53 am 03:53 Clear 71 21.7 64 17.8 79 79 ESE 7 11 29.91 1013 10 16 0.00 0.00
4:53 am 04:53 Clear 70 21.1 64 17.8 82 82 SE 9 15 29.90 1013 10 16 0.00 0.00
5:53 am 05:53 Clear 69 20.6 65 18.3 87 87 E 6 9 29.91 1013 10 16 0.00 0.00
6:53 am 06:53 Sunny 68 20 65 18.3 90 90 ESE 7 11 29.92 1013 10 16 0.00 0.00
7:53 am 07:53 Sunny 70 21.1 65 18.3 84 84 SE 12 19 29.93 1014 10 16 0.00 0.00
8:53 am 08:53 Sunny 75 23.9 65 18.3 71 71 SE 17 28 29.92 1013 10 16 0.00 0.00
9:53 am 09:53 Sunny 79 26.1 65 18.3 62 62 SSE 10 17 29.93 1013 10 16 0.00 0.00
10:53 am 10:53 Sunny 81 27.2 64 17.8 57 57 SSE 7 11 29.91 1013 10 16 0.00 0.00
11:53 am 11:53 Sunny 85 29.4 64 17.8 50 50 E 8 13 29.89 1012 10 16 0.00 0.00
12:53 pm 12:53 Sunny 88 31.1 64 17.8 45 45 E 7 11 29.88 1012 10 16 0.00 0.00
1:53 pm 13:53 Sunny 89 31.7 63 17.2 42 42 SSE 12 19 29.86 1011 10 16 0.00 0.00
2:53 pm 14:53 Sunny 92 33.3 62 16.7 37 37 SE 13 20 29.84 1011 10 16 0.00 0.00
3:53 pm 15:53 Sunny 94 34.4 61 16.1 33 33 VRB 7 11 29.82 1010 10 16 0.00 0.00
4:53 pm 16:53 Mostly Sunny 94 34.4 60 15.6 32 32 SSE 9 15 29.81 1009 10 16 0.00 0.00
5:53 pm 17:53 Sunny 94 34.4 61 16.1 33 33 SE 14 22 29.79 1009 10 16 0.00 0.00
6:53 pm 18:53 Sunny 90 32 57 14 33 33 SE 13 20 29.74 1007 10 16 0.00 0.00
7:53 pm 19:53 Sunny 91 32.8 60 15.6 35 35 ESE 17 28 29.80 1009 10 16 0.00 0.00
8:53 pm 20:53 Sunny 87 30.6 60 15.6 40 40 SE 15 24 29.80 1009 10 16 0.00 0.00
9:53 pm 21:53 Clear 84 28.9 61 16.1 46 46 SE 17 28 29.81 1010 10 16 0.00 0.00
10:53 pm 22:53 Clear 81 27.2 62 16.7 53 53 SE 15 24 29.83 1010 10 16 0.00 0.00
11:53 pm 23:53 Clear 79 26.1 63 17.2 58 58 SE 15 24 29.84 1011 10 16 0.00 0.00

Powered by AerisWeather